Location: Newark
(43.4306°N, 0.3089°E)
Time: 16:38:39
(UTC+00:00)

S-56A Canister/Altair - Pass Details

Date: 22 August 2019
Orbit: 633 x 2499 km, 38.9° (Epoch: 15 October)

Event Time Altitude Azimuth Distance (km) Brightness Sun altitude
Rises 20:03:53 0° 218° (SW) 3,408 11.0 -12.9°
Reaches altitude 10° 20:07:11 10° 202° (SSW) 2,260 9.9 -13.4°
Maximum altitude 20:10:48 20° 156° (SSE) 1,536 8.6 -13.9°
Enters shadow 20:11:24 19° 145° (SE) 1,539 8.5 -14.0°
Drops below altitude 10° 20:14:05 10° 108° (ESE) 2,017 - -14.4°
Sets 20:16:49 0° 90° (E) 2,923 - -14.9°
